GW0977 Weather Reports


time (UTC)temp
C
wind
direction
speed
KPH
gust
KPH
rain 1hr
cm
rain 24hr
cm
rain mn
cm
humidity
%
barometer
mb
20260906164602 31 132 11.3 17.7 0.00 0.00 0.00 72 1017.2
20260906163124 30 129 8.0 17.7 0.00 0.00 0.00 76 1017.4
20260906161605 30 134 8.0 17.7 0.00 0.00 0.00 77 1017.4
20260906154604 29 63 9.7 17.7 0.00 0.00 0.00 79 1017.3
20260906153118 28 85 8.0 16.1 0.00 0.00 0.00 81 1017.2
20260906151606 28 98 8.0 16.1 0.00 0.00 0.00 83 1017.3
20260906150108 27 71 6.4 14.5 0.00 0.00 0.00 86 1017.4
20260906144601 26 64 6.4 14.5 0.00 0.00 0.00 89 1017.5
20260906143103 25 127 8.0 16.1 0.00 0.00 0.00 90 1017.6
20260906141601 25 103 9.7 17.7 0.00 0.00 0.00 92 1017.6
20260906140108 25 143 3.2 22.5 0.00 0.00 0.00 93 1017.5
20260906134601 25 113 9.7 17.7 0.00 0.00 0.00 94 1017.4
20260906133132 24 137 9.7 16.1 0.00 0.00 0.00 94 1017.4
20260906131617 24 103 11.3 17.7 0.00 0.00 0.00 95 1017.3
20260906130118 24 132 4.8 16.1 0.00 0.00 0.00 95 1017.3
20260906124601 24 93 6.4 19.3 0.00 0.00 0.00 95 1017.2
20260906123106 24 46 6.4 14.5 0.00 0.00 0.00 95 1017.0
20260906121620 23 92 6.4 16.1 0.00 0.00 0.00 95 1016.8
20260906120105 23 81 3.2 12.9 0.00 0.00 0.00 95 1016.5
20260906114605 23 69 4.8 16.1 0.00 0.00 0.00 95 1016.3
20260906113106 23 78 4.8 14.5 0.00 0.00 0.00 95 1016.1
20260906111603 23 75 4.8 14.5 0.00 0.00 0.00 94 1016.1
20260906110104 23 107 3.2 14.5 0.00 0.00 0.00 94 1016.0
20260906104600 23 66 3.2 12.9 0.00 0.00 0.00 94 1016.0
20260906103118 24 94 4.8 14.5 0.00 0.00 0.00 93 1015.8
20260906101601 24 78 3.2 9.7 0.00 0.00 0.00 93 1015.8
20260906100112 24 95 3.2 12.9 0.00 0.00 0.00 93 1015.8
20260906094626 24 116 3.2 9.7 0.00 0.00 0.00 92 1015.8
20260906093105 24 53 3.2 11.3 0.00 0.00 0.00 92 1015.6
20260906091604 25 115 1.6 11.3 0.00 0.00 0.00 91 1015.3
20260906090115 25 104 4.8 11.3 0.00 0.00 0.00 91 1015.2
20260906084606 25 113 3.2 9.7 0.00 0.00 0.00 90 1015.1
20260906083102 25 101 3.2 11.3 0.00 0.00 0.00 89 1015.2
20260906081602 25 60 4.8 14.5 0.00 0.00 0.00 89 1015.3
20260906080103 25 71 1.6 9.7 0.00 0.00 0.00 88 1015.3
20260906074605 25 90 4.8 12.9 0.00 0.00 0.00 87 1015.1
20260906073104 25 88 4.8 11.3 0.00 0.00 0.00 87 1015.1
20260906071602 25 109 3.2 11.3 0.00 0.00 0.00 86 1015.2
20260906070100 26 90 3.2 9.7 0.00 0.00 0.00 86 1015.2
20260906064602 26 67 3.2 11.3 0.00 0.00 0.00 85 1015.3
20260906063101 26 109 3.2 11.3 0.00 0.00 0.00 85 1015.4
20260906061607 26 90 4.8 14.5 0.00 0.00 0.00 84 1015.6
20260906060106 26 86 1.6 11.3 0.00 0.00 0.00 83 1015.7
20260906054603 26 36 4.8 14.5 0.00 0.00 0.00 83 1015.8
20260906053100 26 93 3.2 14.5 0.00 0.00 0.00 81 1015.7
20260906051600 27 64 4.8 16.1 0.00 0.00 0.00 80 1015.7
20260906050057 27 74 4.8 12.9 0.00 0.00 0.00 79 1015.6
20260906044603 27 83 6.4 12.9 0.00 0.00 0.00 78 1015.6
20260906043059 27 49 3.2 12.9 0.00 0.00 0.00 76 1015.4
20260906041600 28 45 8.0 16.1 0.00 0.00 0.00 76 1015.3
20260906040107 28 59 3.2 9.7 0.00 0.00 0.00 75 1015.1
20260906034600 28 73 1.6 4.8 0.00 0.00 0.00 75 1015.0
20260906033104 28 73 0.0 6.4 0.00 0.00 0.00 74 1014.7
20260906031604 28 102 1.6 6.4 0.00 0.00 0.00 74 1014.8
20260906024601 28 76 1.6 9.7 0.00 0.00 0.00 72 1014.4
20260906023100 28 84 1.6 6.4 0.00 0.00 0.00 71 1014.2
20260906021615 29 0 0.0 6.4 0.00 0.00 0.00 70 1014.1
20260906020108 29 97 1.6 6.4 0.00 0.00 0.00 69 1013.9
20260906014611 30 101 1.6 4.8 0.00 0.00 0.00 67 1013.8
20260906013107 30 0 1.6 6.4 0.00 0.00 0.00 67 1013.5
20260906011618 30 80 1.6 4.8 0.00 0.00 0.00 66 1013.4
20260906004558 31 81 1.6 6.4 0.00 0.00 0.00 63 1013.3
20260906003103 32 81 0.0 4.8 0.00 0.00 0.00 61 1013.4
20260906001602 32 81 3.2 11.3 0.00 0.00 0.00 60 1013.4
20260906000105 33 53 6.4 12.9 0.00 0.00 0.00 59 1013.4
20260905234606 33 61 3.2 9.7 0.00 0.00 0.00 58 1013.5
20260905233130 33 85 6.4 14.5 0.00 0.00 0.00 57 1013.4
20260905231559 33 62 6.4 16.1 0.00 0.00 0.00 56 1013.5
20260905230104 33 35 6.4 14.5 0.00 0.00 0.00 56 1013.3
20260905224623 33 92 6.4 22.5 0.00 0.00 0.00 57 1013.2
20260905223107 33 30 6.4 17.7 0.00 0.00 0.00 56 1013.3
20260905221604 33 32 9.7 20.9 0.00 0.00 0.00 57 1013.1
20260905220106 33 54 9.7 19.3 0.00 0.00 0.00 57 1013.1
20260905214605 35 37 4.8 19.3 0.00 0.00 0.00 56 1013.2
20260905213105 34 35 9.7 19.3 0.00 0.00 0.00 55 1013.3
20260905211600 35 36 4.8 12.9 0.00 0.00 0.00 54 1013.5
20260905210108 33 319 4.8 12.9 0.00 0.00 0.00 58 1013.6
20260905204606 31 343 4.8 9.7 0.00 0.00 0.00 65 1013.7
20260905203107 31 17 6.4 20.9 0.00 0.00 0.00 65 1014.3
20260905201611 31 16 6.4 20.9 0.00 0.00 0.00 61 1014.5
20260905200104 31 329 12.9 32.2 0.00 0.00 0.00 48 1015.0
20260905194605 37 323 12.9 24.1 0.00 0.00 0.00 45 1014.9
20260905193103 37 147 3.2 17.7 0.00 0.00 0.00 47 1014.7
20260905191611 37 215 3.2 14.5 0.00 0.00 0.00 44 1014.7
20260905190134 37 191 3.2 11.3 0.00 0.00 0.00 44 1014.9
20260905184621 38 211 1.6 6.4 0.00 0.00 0.00 42 1015.1
20260905183103 36 310 6.4 12.9 0.00 0.00 0.00 45 1015.4
20260905181603 36 360 6.4 16.1 0.00 0.00 0.00 48 1015.5
20260905174602 35 123 3.2 16.1 0.00 0.00 0.00 51 1015.6
20260905173104 35 148 4.8 9.7 0.00 0.00 0.00 50 1015.8
20260905171602 35 0 6.4 11.3 0.00 0.00 0.00 50 1015.7
20260905170116 34 218 6.4 16.1 0.00 0.00 0.00 52 1015.9